TimeEST,TemperatureF,Dew PointF,Humidity,Sea Level PressureIn,VisibilityMPH,Wind Direction,Wind SpeedMPH,Gust SpeedMPH,PrecipitationIn,Events,Conditions,WindDirDegrees,DateUTC
12:54 AM,27.0,18.0,69,30.23,10.0,NW,9.2,-,N/A,,Overcast,310,2012-11-24 05:54:00
1:54 AM,27.0,17.1,66,30.23,10.0,WNW,10.4,-,N/A,,Overcast,290,2012-11-24 06:54:00
2:54 AM,26.1,17.1,69,30.24,10.0,West,10.4,-,N/A,,Mostly Cloudy,270,2012-11-24 07:54:00
3:04 AM,24.8,17.6,74,30.21,10.0,West,9.2,-,N/A,,Mostly Cloudy,270,2012-11-24 08:04:00
3:16 AM,24.8,17.6,74,30.21,10.0,West,8.1,-,N/A,,Mostly Cloudy,270,2012-11-24 08:16:00
3:54 AM,26.1,17.1,69,30.23,10.0,West,10.4,-,N/A,,Overcast,270,2012-11-24 08:54:00
4:54 AM,26.1,18.0,71,30.23,10.0,West,9.2,-,N/A,,Overcast,280,2012-11-24 09:54:00
5:54 AM,26.1,18.0,71,30.24,10.0,NW,10.4,-,N/A,,Overcast,310,2012-11-24 10:54:00
6:54 AM,26.1,18.0,71,30.25,10.0,NW,11.5,-,N/A,,Overcast,310,2012-11-24 11:54:00
7:54 AM,26.1,18.0,71,30.26,10.0,WNW,9.2,-,N/A,,Overcast,300,2012-11-24 12:54:00
8:54 AM,27.0,18.0,69,30.26,10.0,West,10.4,-,N/A,,Overcast,280,2012-11-24 13:54:00
9:27 AM,26.6,17.6,69,30.24,10.0,West,10.4,-,N/A,,Overcast,280,2012-11-24 14:27:00
9:54 AM,28.0,18.0,66,30.28,10.0,WNW,10.4,-,N/A,,Overcast,290,2012-11-24 14:54:00
10:54 AM,28.9,19.0,67,30.29,10.0,West,11.5,-,N/A,,Overcast,280,2012-11-24 15:54:00
11:54 AM,30.9,19.0,61,30.28,10.0,West,10.4,-,N/A,,Overcast,280,2012-11-24 16:54:00
12:54 PM,30.9,19.0,61,30.25,10.0,West,8.1,-,N/A,,Mostly Cloudy,260,2012-11-24 17:54:00
1:54 PM,30.9,19.0,61,30.24,10.0,Variable,3.5,-,N/A,,Overcast,0,2012-11-24 18:54:00
2:54 PM,30.9,19.0,61,30.22,10.0,WNW,5.8,-,N/A,,Overcast,290,2012-11-24 19:54:00
3:54 PM,30.9,19.0,61,30.21,10.0,West,6.9,-,N/A,,Mostly Cloudy,270,2012-11-24 20:54:00
4:54 PM,30.0,19.9,66,30.21,10.0,West,6.9,-,N/A,,Mostly Cloudy,270,2012-11-24 21:54:00
5:54 PM,27.0,19.0,72,30.20,10.0,SSW,6.9,-,N/A,,Mostly Cloudy,210,2012-11-24 22:54:00
6:54 PM,26.1,19.0,75,30.20,10.0,SSW,5.8,-,N/A,,Scattered Clouds,210,2012-11-24 23:54:00
7:54 PM,24.1,18.0,77,30.19,10.0,SSW,4.6,-,N/A,,Scattered Clouds,210,2012-11-25 00:54:00
8:54 PM,24.1,19.0,81,30.17,10.0,SSW,6.9,-,N/A,,Mostly Cloudy,200,2012-11-25 01:54:00
9:54 PM,24.1,19.0,81,30.16,10.0,SSW,6.9,-,N/A,,Mostly Cloudy,210,2012-11-25 02:54:00
10:54 PM,26.1,19.9,78,30.14,10.0,SSW,8.1,-,N/A,,Overcast,210,2012-11-25 03:54:00
11:54 PM,26.1,21.0,81,30.11,10.0,South,6.9,-,N/A,,Overcast,180,2012-11-25 04:54:00